This is the latest recevied weather packets stored in our database for station/object KE5OYL. If no packets are shown the sender has not sent any weather packets the latest 10 day(s).
| Time | Temp. | Humidity | Pressure | Rain* | Wind** | Luminosity | Snow |
|---|---|---|---|---|---|---|---|
| 1777997021 | 25.56° C | 73% | 1005.6 hPa | 0 mm | - | 540 W/m² | - |
| 1777996718 | 25° C | 75% | 1005.8 hPa | 0 mm | - | 575 W/m² | - |
| 1777996413 | 25° C | 75% | 1006.1 hPa | 0 mm | - | 480 W/m² | - |
| 1777996110 | 25° C | 76% | 1006 hPa | 0 mm | - | 510 W/m² | - |
| 1777995806 | 25° C | 75% | 1005.9 hPa | 0 mm | - | 350 W/m² | - |
| 1777995502 | 25° C | 75% | 1006 hPa | 0 mm | - | 394 W/m² | - |
| 1777995200 | 25° C | 75% | 1006 hPa | 0 mm | - | 492 W/m² | - |
| 1777994897 | 25° C | 76% | 1005.9 hPa | 0 mm | - | 551 W/m² | - |
| 1777994594 | 25° C | 76% | 1006.1 hPa | 0 mm | - | 416 W/m² | - |
| 1777994288 | 25° C | 76% | 1006.2 hPa | 0 mm | - | 430 W/m² | - |
| 1777993985 | 24.44° C | 77% | 1006.4 hPa | 0 mm | - | 326 W/m² | - |
| 1777993682 | 24.44° C | 77% | 1006.2 hPa | 0 mm | - | 301 W/m² | - |
| 1777993379 | 24.44° C | 77% | 1006.3 hPa | 0 mm | - | 255 W/m² | - |
| 1777993074 | 24.44° C | 78% | 1006.1 hPa | 0 mm | - | 267 W/m² | - |
| 1777992773 | 23.89° C | 78% | 1006.1 hPa | 0 mm | - | 225 W/m² | - |
| 1777992469 | 23.89° C | 78% | 1006.1 hPa | 0 mm | - | 225 W/m² | - |
| 1777992168 | 23.89° C | 78% | 1005.9 hPa | 0 mm | - | 164 W/m² | - |
| 1777991864 | 23.89° C | 78% | 1006.1 hPa | 0 mm | - | 158 W/m² | - |
| 1777991562 | 23.89° C | 78% | 1005.9 hPa | 0 mm | - | 214 W/m² | - |
| 1777991259 | 23.89° C | 79% | 1005.7 hPa | 0 mm | - | 229 W/m² | - |
| 1777990956 | 23.89° C | 79% | 1005.8 hPa | 0 mm | - | 253 W/m² | - |
| 1777990654 | 23.89° C | 80% | 1006 hPa | 0 mm | - | 271 W/m² | - |
| 1777990351 | 23.89° C | 80% | 1006.2 hPa | 0 mm | - | 215 W/m² | - |
| 1777990047 | 23.33° C | 81% | 1006.2 hPa | 0 mm | - | 208 W/m² | - |
| 1777989744 | 23.33° C | 81% | 1006.2 hPa | 0 mm | - | 165 W/m² | - |
* Rain latest hour (hover to see other rain measurements)
** Current wind speed in m/s (hover to see current wind gust speed)